Time,TemperatureF,DewpointF,PressureIn,WindDirection,WindDirectionDegrees,WindSpeedMPH,WindSpeedGustMPH,Humidity,HourlyPrecipIn,Conditions,Clouds,dailyrainin,SoftwareType,DateUTC
2013-08-26 00:03:00,74.0,65.6,30.07,SW,229,5.0,5.0,75,0.00,,,0.00,Wunderground v.1.15,2013-08-26 04:03:00,
2013-08-26 00:13:00,73.9,65.5,30.08,SW,221,5.0,5.0,75,0.00,,,0.00,Wunderground v.1.15,2013-08-26 04:13:00,
2013-08-26 00:23:00,73.5,65.5,30.08,SW,221,4.0,6.0,76,0.00,,,0.00,Wunderground v.1.15,2013-08-26 04:23:00,
2013-08-26 00:33:00,73.2,65.6,30.07,SW,225,5.0,6.0,77,0.00,,,0.00,Wunderground v.1.15,2013-08-26 04:33:00,
2013-08-26 00:43:00,72.8,65.5,30.07,SW,220,5.0,5.0,78,0.00,,,0.00,Wunderground v.1.15,2013-08-26 04:43:00,
2013-08-26 00:53:00,72.5,65.6,30.07,SW,225,5.0,5.0,79,0.00,,,0.00,Wunderground v.1.15,2013-08-26 04:53:00,
2013-08-26 01:03:00,72.3,65.4,30.07,SW,229,5.0,5.0,79,0.00,,,0.00,Wunderground v.1.15,2013-08-26 05:03:00,
2013-08-26 01:13:00,72.1,65.2,30.07,SW,227,5.0,5.0,79,0.00,,,0.00,Wunderground v.1.15,2013-08-26 05:13:00,
2013-08-26 01:23:00,71.8,65.3,30.07,SW,225,5.0,7.0,80,0.00,,,0.00,Wunderground v.1.15,2013-08-26 05:23:00,
2013-08-26 01:33:00,71.5,65.4,30.06,SW,223,5.0,5.0,81,0.00,,,0.00,Wunderground v.1.15,2013-08-26 05:33:00,
2013-08-26 01:43:00,71.1,65.3,30.05,SW,221,4.0,6.0,82,0.00,,,0.00,Wunderground v.1.15,2013-08-26 05:43:00,
2013-08-26 01:53:00,70.9,65.1,30.05,SW,221,4.0,4.0,82,0.00,,,0.00,Wunderground v.1.15,2013-08-26 05:53:00,
2013-08-26 02:03:00,70.8,65.0,30.05,SW,216,5.0,5.0,82,0.00,,,0.00,Wunderground v.1.15,2013-08-26 06:03:00,
2013-08-26 02:13:00,70.9,64.8,30.03,SW,223,6.0,6.0,81,0.00,,,0.00,Wunderground v.1.15,2013-08-26 06:13:00,
2013-08-26 02:23:00,70.9,64.8,30.03,SW,218,6.0,6.0,81,0.00,,,0.00,Wunderground v.1.15,2013-08-26 06:23:00,
2013-08-26 02:33:00,70.9,64.8,30.03,SW,227,7.0,7.0,81,0.00,,,0.00,Wunderground v.1.15,2013-08-26 06:33:00,
2013-08-26 02:43:00,70.9,64.8,30.02,SW,228,6.0,8.0,81,0.00,,,0.00,Wunderground v.1.15,2013-08-26 06:43:00,
2013-08-26 02:53:00,70.8,65.0,30.02,SW,222,7.0,7.0,82,0.00,,,0.00,Wunderground v.1.15,2013-08-26 06:53:00,
2013-08-26 03:03:00,70.1,64.7,30.02,SW,229,5.0,5.0,83,0.00,,,0.00,Wunderground v.1.15,2013-08-26 07:03:00,
2013-08-26 03:13:00,69.4,64.7,30.03,SW,227,5.0,5.0,85,0.00,,,0.00,Wunderground v.1.15,2013-08-26 07:13:00,
2013-08-26 03:23:00,69.3,64.6,30.03,SW,226,5.0,7.0,85,0.00,,,0.00,Wunderground v.1.15,2013-08-26 07:23:00,
2013-08-26 03:33:00,69.3,64.6,30.03,SW,226,5.0,5.0,85,0.00,,,0.00,Wunderground v.1.15,2013-08-26 07:33:00,
2013-08-26 03:43:00,69.1,64.7,30.03,SW,223,4.0,4.0,86,0.00,,,0.00,Wunderground v.1.15,2013-08-26 07:43:00,
2013-08-26 03:53:00,68.4,64.4,30.03,SW,223,3.0,3.0,87,0.00,,,0.00,Wunderground v.1.15,2013-08-26 07:53:00,
2013-08-26 04:03:00,68.1,64.4,30.04,SW,223,3.0,5.0,88,0.00,,,0.00,Wunderground v.1.15,2013-08-26 08:03:00,
2013-08-26 04:13:00,68.8,64.8,30.04,SW,223,4.0,5.0,87,0.00,,,0.00,Wunderground v.1.15,2013-08-26 08:13:00,
2013-08-26 04:23:00,69.1,64.7,30.04,SW,223,3.0,3.0,86,0.00,,,0.00,Wunderground v.1.15,2013-08-26 08:23:00,
2013-08-26 04:33:00,69.6,64.9,30.05,SW,223,3.0,3.0,85,0.00,,,0.00,Wunderground v.1.15,2013-08-26 08:33:00,
2013-08-26 04:43:00,69.4,64.7,30.04,SW,223,3.0,3.0,85,0.00,,,0.00,Wunderground v.1.15,2013-08-26 08:43:00,
2013-08-26 04:53:00,69.3,64.9,30.04,SW,223,2.0,2.0,86,0.00,,,0.00,Wunderground v.1.15,2013-08-26 08:53:00,
2013-08-26 05:03:00,69.4,65.0,30.03,SW,223,2.0,4.0,86,0.00,,,0.00,Wunderground v.1.15,2013-08-26 09:03:00,
2013-08-26 05:13:00,69.6,64.9,30.03,SW,222,3.0,3.0,85,0.00,,,0.00,Wunderground v.1.15,2013-08-26 09:13:00,
2013-08-26 05:23:00,70.1,65.0,30.03,SW,214,4.0,5.0,84,0.00,,,0.00,Wunderground v.1.15,2013-08-26 09:23:00,
2013-08-26 05:33:00,70.4,65.0,30.03,SW,225,6.0,6.0,83,0.00,,,0.00,Wunderground v.1.15,2013-08-26 09:33:00,
2013-08-26 05:43:00,69.9,64.8,30.04,SW,225,4.0,4.0,84,0.00,,,0.00,Wunderground v.1.15,2013-08-26 09:43:00,
2013-08-26 05:53:00,69.9,65.2,30.04,SW,223,5.0,6.0,85,0.00,,,0.00,Wunderground v.1.15,2013-08-26 09:53:00,
2013-08-26 06:03:00,70.1,65.0,30.04,SW,223,4.0,4.0,84,0.00,,,0.00,Wunderground v.1.15,2013-08-26 10:03:00,
2013-08-26 06:13:00,70.3,65.2,30.03,SW,225,5.0,6.0,84,0.00,,,0.00,Wunderground v.1.15,2013-08-26 10:13:00,
2013-08-26 06:23:00,70.4,65.3,30.03,SW,218,6.0,6.0,84,0.00,,,0.00,Wunderground v.1.15,2013-08-26 10:23:00,
2013-08-26 06:33:00,70.3,65.2,30.04,SW,218,4.0,4.0,84,0.00,,,0.00,Wunderground v.1.15,2013-08-26 10:33:00,
2013-08-26 06:43:00,70.1,65.0,30.05,SW,219,5.0,5.0,84,0.00,,,0.00,Wunderground v.1.15,2013-08-26 10:43:00,
2013-08-26 06:53:00,69.8,65.4,30.05,SW,220,3.0,4.0,86,0.00,,,0.00,Wunderground v.1.15,2013-08-26 10:53:00,
2013-08-26 07:03:00,69.4,65.4,30.05,SW,220,4.0,4.0,87,0.00,,,0.00,Wunderground v.1.15,2013-08-26 11:03:00,
2013-08-26 07:13:00,69.6,65.2,30.05,SW,220,4.0,4.0,86,0.00,,,0.00,Wunderground v.1.15,2013-08-26 11:13:00,
2013-08-26 07:23:00,69.9,65.5,30.05,SW,221,5.0,5.0,86,0.00,,,0.00,Wunderground v.1.15,2013-08-26 11:23:00,
2013-08-26 07:33:00,70.1,65.4,30.05,SW,223,5.0,5.0,85,0.00,,,0.00,Wunderground v.1.15,2013-08-26 11:33:00,
2013-08-26 07:43:00,70.3,65.6,30.05,SW,218,5.0,5.0,85,0.00,,,0.00,Wunderground v.1.15,2013-08-26 11:43:00,
2013-08-26 07:53:00,70.3,65.6,30.05,SW,218,4.0,4.0,85,0.00,,,0.00,Wunderground v.1.15,2013-08-26 11:53:00,
2013-08-26 08:03:00,70.6,65.9,30.05,SW,219,4.0,4.0,85,0.00,,,0.00,Wunderground v.1.15,2013-08-26 12:03:00,
2013-08-26 08:13:00,70.8,65.7,30.05,SW,225,4.0,5.0,84,0.00,,,0.00,Wunderground v.1.15,2013-08-26 12:13:00,
2013-08-26 08:23:00,71.5,65.7,30.05,SW,225,7.0,7.0,82,0.00,,,0.00,Wunderground v.1.15,2013-08-26 12:23:00,
2013-08-26 08:33:00,72.1,65.9,30.04,SW,228,7.0,7.0,81,0.00,,,0.00,Wunderground v.1.15,2013-08-26 12:33:00,
2013-08-26 08:43:00,72.5,66.0,30.03,WSW,242,7.0,8.0,80,0.00,,,0.00,Wunderground v.1.15,2013-08-26 12:43:00,
2013-08-26 08:53:00,72.7,66.2,30.03,SW,227,8.0,8.0,80,0.00,,,0.00,Wunderground v.1.15,2013-08-26 12:53:00,
2013-08-26 09:03:00,73.2,66.3,30.03,WSW,237,8.0,8.0,79,0.00,,,0.00,Wunderground v.1.15,2013-08-26 13:03:00,
2013-08-26 09:13:00,73.9,66.6,30.03,WSW,241,8.0,8.0,78,0.00,,,0.00,Wunderground v.1.15,2013-08-26 13:13:00,
2013-08-26 09:23:00,74.2,66.9,30.03,WSW,241,8.0,8.0,78,0.00,,,0.00,Wunderground v.1.15,2013-08-26 13:23:00,
2013-08-26 09:33:00,74.6,66.9,30.03,WSW,244,9.0,9.0,77,0.00,,,0.00,Wunderground v.1.15,2013-08-26 13:33:00,
2013-08-26 09:43:00,75.1,67.0,30.04,WSW,245,7.0,11.0,76,0.00,,,0.00,Wunderground v.1.15,2013-08-26 13:43:00,
2013-08-26 09:53:00,76.0,67.1,30.04,WSW,240,8.0,8.0,74,0.00,,,0.00,Wunderground v.1.15,2013-08-26 13:53:00,
2013-08-26 10:03:00,76.8,67.1,30.03,WSW,246,9.0,9.0,72,0.00,,,0.00,Wunderground v.1.15,2013-08-26 14:03:00,
2013-08-26 10:13:00,76.7,67.0,30.03,SW,234,8.0,9.0,72,0.00,,,0.00,Wunderground v.1.15,2013-08-26 14:13:00,
2013-08-26 10:23:00,76.8,67.5,30.03,SW,235,8.0,9.0,73,0.00,,,0.00,Wunderground v.1.15,2013-08-26 14:23:00,
2013-08-26 10:33:00,77.0,67.7,30.03,WSW,254,7.0,7.0,73,0.00,,,0.00,Wunderground v.1.15,2013-08-26 14:33:00,
2013-08-26 10:43:00,77.2,67.5,30.03,WSW,257,7.0,7.0,72,0.00,,,0.00,Wunderground v.1.15,2013-08-26 14:43:00,
2013-08-26 10:53:00,77.2,68.3,30.03,WSW,257,6.0,6.0,74,0.00,,,0.00,Wunderground v.1.15,2013-08-26 14:53:00,
2013-08-26 11:03:00,77.7,68.4,30.04,WSW,257,5.0,5.0,73,0.00,,,0.00,Wunderground v.1.15,2013-08-26 15:03:00,
2013-08-26 11:13:00,78.6,69.2,30.05,West,264,4.0,4.0,73,0.00,,,0.00,Wunderground v.1.15,2013-08-26 15:13:00,
2013-08-26 11:23:00,78.8,68.2,30.05,West,261,3.0,6.0,70,0.00,,,0.00,Wunderground v.1.15,2013-08-26 15:23:00,
2013-08-26 11:33:00,77.9,68.1,30.05,West,263,3.0,3.0,72,0.00,,,0.00,Wunderground v.1.15,2013-08-26 15:33:00,
2013-08-26 11:43:00,77.0,67.7,30.04,West,261,4.0,4.0,73,0.00,,,0.00,Wunderground v.1.15,2013-08-26 15:43:00,
2013-08-26 11:53:00,76.3,67.8,30.04,West,262,5.0,9.0,75,0.00,,,0.00,Wunderground v.1.15,2013-08-26 15:53:00,
2013-08-26 12:03:00,76.3,68.2,30.03,WSW,258,4.0,7.0,76,0.00,,,0.00,Wunderground v.1.15,2013-08-26 16:03:00,
2013-08-26 12:13:00,77.0,68.1,30.03,West,263,8.0,8.0,74,0.00,,,0.00,Wunderground v.1.15,2013-08-26 16:13:00,
2013-08-26 12:23:00,77.2,68.7,30.03,WSW,257,8.0,8.0,75,0.00,,,0.00,Wunderground v.1.15,2013-08-26 16:23:00,
2013-08-26 12:33:00,77.2,69.0,30.03,WSW,254,8.0,9.0,76,0.00,,,0.00,Wunderground v.1.15,2013-08-26 16:33:00,
2013-08-26 12:43:00,77.0,69.2,30.02,WSW,238,7.0,9.0,77,0.00,,,0.00,Wunderground v.1.15,2013-08-26 16:43:00,
2013-08-26 12:53:00,77.0,69.2,30.02,WSW,252,8.0,8.0,77,0.00,,,0.00,Wunderground v.1.15,2013-08-26 16:53:00,
2013-08-26 13:03:00,77.2,69.0,30.00,SW,225,8.0,8.0,76,0.00,,,0.00,Wunderground v.1.15,2013-08-26 17:03:00,
2013-08-26 13:13:00,77.2,69.8,29.99,SW,236,8.0,8.0,78,0.00,,,0.00,Wunderground v.1.15,2013-08-26 17:13:00,
2013-08-26 13:23:00,77.2,69.8,29.99,WSW,243,8.0,9.0,78,0.00,,,0.00,Wunderground v.1.15,2013-08-26 17:23:00,
2013-08-26 13:33:00,76.7,68.9,29.99,WSW,254,10.0,11.0,77,0.00,,,0.00,Wunderground v.1.15,2013-08-26 17:33:00,
2013-08-26 13:43:00,76.5,68.7,29.98,WSW,256,9.0,9.0,77,0.00,,,0.00,Wunderground v.1.15,2013-08-26 17:43:00,
2013-08-26 13:53:00,76.5,68.7,29.98,SW,233,9.0,10.0,77,0.00,,,0.00,Wunderground v.1.15,2013-08-26 17:53:00,
2013-08-26 14:03:00,76.3,68.9,29.98,SW,229,10.0,14.0,78,0.00,,,0.00,Wunderground v.1.15,2013-08-26 18:03:00,
2013-08-26 14:13:00,76.5,69.1,29.96,WSW,252,11.0,11.0,78,0.00,,,0.00,Wunderground v.1.15,2013-08-26 18:13:00,
2013-08-26 14:23:00,76.5,68.7,29.96,SW,234,11.0,11.0,77,0.00,,,0.00,Wunderground v.1.15,2013-08-26 18:23:00,
2013-08-26 14:33:00,76.3,68.6,29.95,WSW,244,10.0,13.0,77,0.00,,,0.00,Wunderground v.1.15,2013-08-26 18:33:00,
2013-08-26 14:43:00,76.7,68.9,29.95,WSW,242,10.0,10.0,77,0.00,,,0.00,Wunderground v.1.15,2013-08-26 18:43:00,
2013-08-26 14:53:00,76.8,69.0,29.95,SW,217,9.0,9.0,77,0.00,,,0.00,Wunderground v.1.15,2013-08-26 18:53:00,
2013-08-26 15:03:00,76.8,69.0,29.92,WSW,238,8.0,8.0,77,0.00,,,0.00,Wunderground v.1.15,2013-08-26 19:03:00,
2013-08-26 15:13:00,77.4,70.0,29.95,WNW,288,3.0,3.0,78,0.00,,,0.00,Wunderground v.1.15,2013-08-26 19:13:00,
2013-08-26 15:23:00,77.9,69.7,29.95,WSW,250,4.0,5.0,76,0.00,,,0.00,Wunderground v.1.15,2013-08-26 19:23:00,
2013-08-26 15:33:00,78.1,69.9,29.96,WSW,257,6.0,6.0,76,0.00,,,0.00,Wunderground v.1.15,2013-08-26 19:33:00,
2013-08-26 15:43:00,78.5,69.9,29.96,West,266,2.0,2.0,75,0.00,,,0.00,Wunderground v.1.15,2013-08-26 19:43:00,
2013-08-26 15:53:00,78.5,69.9,29.96,West,259,5.0,7.0,75,0.00,,,0.00,Wunderground v.1.15,2013-08-26 19:53:00,
2013-08-26 16:03:00,79.0,70.4,29.95,West,261,5.0,7.0,75,0.00,,,0.00,Wunderground v.1.15,2013-08-26 20:03:00,
2013-08-26 16:13:00,80.1,70.7,29.95,West,260,3.0,6.0,73,0.00,,,0.00,Wunderground v.1.15,2013-08-26 20:13:00,
2013-08-26 16:23:00,80.3,70.9,29.95,SW,223,8.0,8.0,73,0.00,,,0.00,Wunderground v.1.15,2013-08-26 20:23:00,
2013-08-26 16:33:00,80.1,70.7,29.94,WSW,240,6.0,7.0,73,0.00,,,0.00,Wunderground v.1.15,2013-08-26 20:33:00,
2013-08-26 16:43:00,80.3,70.4,29.94,West,263,8.0,9.0,72,0.00,,,0.00,Wunderground v.1.15,2013-08-26 20:43:00,
2013-08-26 16:53:00,79.9,70.9,29.94,WSW,255,8.0,11.0,74,0.00,,,0.00,Wunderground v.1.15,2013-08-26 20:53:00,
2013-08-26 17:03:00,80.1,71.1,29.94,WSW,245,8.0,11.0,74,0.00,,,0.00,Wunderground v.1.15,2013-08-26 21:03:00,
2013-08-26 17:13:00,80.3,70.4,29.94,WSW,238,9.0,9.0,72,0.00,,,0.00,Wunderground v.1.15,2013-08-26 21:13:00,
2013-08-26 17:23:00,81.1,71.2,29.94,WSW,245,4.0,6.0,72,0.00,,,0.00,Wunderground v.1.15,2013-08-26 21:23:00,
2013-08-26 17:33:00,81.2,71.3,29.94,WSW,246,6.0,8.0,72,0.00,,,0.00,Wunderground v.1.15,2013-08-26 21:33:00,
2013-08-26 17:43:00,81.4,71.1,29.94,SSW,213,6.0,6.0,71,0.00,,,0.00,Wunderground v.1.15,2013-08-26 21:43:00,
2013-08-26 17:53:00,81.8,71.5,29.94,SW,225,6.0,6.0,71,0.00,,,0.00,Wunderground v.1.15,2013-08-26 21:53:00,
2013-08-26 18:03:00,82.0,71.7,29.94,SW,226,6.0,7.0,71,0.00,,,0.00,Wunderground v.1.15,2013-08-26 22:03:00,
2013-08-26 18:13:00,82.4,71.6,29.94,SW,236,6.0,7.0,70,0.00,,,0.00,Wunderground v.1.15,2013-08-26 22:13:00,
2013-08-26 18:23:00,82.0,72.1,29.94,WSW,248,7.0,7.0,72,0.00,,,0.00,Wunderground v.1.15,2013-08-26 22:23:00,
2013-08-26 18:33:00,82.0,71.7,29.93,WSW,250,6.0,6.0,71,0.00,,,0.00,Wunderground v.1.15,2013-08-26 22:33:00,
2013-08-26 18:43:00,82.2,71.9,29.93,WSW,239,5.0,7.0,71,0.00,,,0.00,Wunderground v.1.15,2013-08-26 22:43:00,
2013-08-26 18:53:00,82.4,72.0,29.93,WSW,243,6.0,6.0,71,0.00,,,0.00,Wunderground v.1.15,2013-08-26 22:53:00,
2013-08-26 19:03:00,82.2,71.9,29.92,WSW,250,6.0,7.0,71,0.00,,,0.00,Wunderground v.1.15,2013-08-26 23:03:00,
2013-08-26 19:13:00,82.2,72.3,29.92,West,259,5.0,5.0,72,0.00,,,0.00,Wunderground v.1.15,2013-08-26 23:13:00,
2013-08-26 19:23:00,81.8,72.3,29.92,SW,236,4.0,4.0,73,0.00,,,0.00,Wunderground v.1.15,2013-08-26 23:23:00,
2013-08-26 19:33:00,81.4,72.3,29.92,SW,236,3.0,3.0,74,0.00,,,0.00,Wunderground v.1.15,2013-08-26 23:33:00,
2013-08-26 19:43:00,81.1,72.0,29.91,WSW,237,3.0,3.0,74,0.00,,,0.00,Wunderground v.1.15,2013-08-26 23:43:00,
2013-08-26 19:53:00,80.9,72.2,29.91,WSW,237,3.0,3.0,75,0.00,,,0.00,Wunderground v.1.15,2013-08-26 23:53:00,
2013-08-26 20:03:00,80.5,71.8,29.91,SW,236,3.0,3.0,75,0.00,,,0.00,Wunderground v.1.15,2013-08-27 00:03:00,
2013-08-26 20:13:00,80.3,72.0,29.91,SW,236,2.0,3.0,76,0.00,,,0.00,Wunderground v.1.15,2013-08-27 00:13:00,
2013-08-26 20:23:00,79.8,71.9,29.91,SW,236,2.0,2.0,77,0.00,,,0.00,Wunderground v.1.15,2013-08-27 00:23:00,
2013-08-26 20:33:00,79.2,71.7,29.90,SW,236,2.0,2.0,78,0.00,,,0.00,Wunderground v.1.15,2013-08-27 00:33:00,
2013-08-26 20:43:00,78.6,71.5,29.90,SW,236,2.0,2.0,79,0.00,,,0.00,Wunderground v.1.15,2013-08-27 00:43:00,
2013-08-26 20:53:00,78.3,71.2,29.90,SW,236,2.0,2.0,79,0.00,,,0.00,Wunderground v.1.15,2013-08-27 00:53:00,
2013-08-26 21:03:00,77.9,70.9,29.90,SW,236,0.0,0.0,79,0.00,,,0.00,Wunderground v.1.15,2013-08-27 01:03:00,
2013-08-26 21:13:00,77.6,70.6,29.90,SW,236,0.0,0.0,79,0.00,,,0.00,Wunderground v.1.15,2013-08-27 01:13:00,
2013-08-26 21:23:00,77.2,70.5,29.90,SW,236,0.0,0.0,80,0.00,,,0.00,Wunderground v.1.15,2013-08-27 01:23:00,
2013-08-26 21:33:00,76.7,70.4,29.91,SW,236,0.0,0.0,81,0.00,,,0.00,Wunderground v.1.15,2013-08-27 01:33:00,
2013-08-26 21:43:00,76.1,69.8,29.91,SW,236,0.0,0.0,81,0.00,,,0.00,Wunderground v.1.15,2013-08-27 01:43:00,
2013-08-26 21:53:00,75.6,70.1,29.91,SW,236,0.0,0.0,83,0.00,,,0.00,Wunderground v.1.15,2013-08-27 01:53:00,
2013-08-26 22:03:00,75.4,70.2,29.92,SW,236,1.0,3.0,84,0.00,,,0.00,Wunderground v.1.15,2013-08-27 02:03:00,
2013-08-26 22:13:00,76.5,70.9,29.91,SW,236,4.0,4.0,83,0.00,,,0.00,Wunderground v.1.15,2013-08-27 02:13:00,
2013-08-26 22:23:00,76.7,71.1,29.91,SW,236,3.0,4.0,83,0.00,,,0.00,Wunderground v.1.15,2013-08-27 02:23:00,
2013-08-26 22:33:00,76.3,71.1,29.91,SW,236,3.0,3.0,84,0.00,,,0.00,Wunderground v.1.15,2013-08-27 02:33:00,
2013-08-26 22:43:00,76.1,70.9,29.91,SW,236,3.0,3.0,84,0.00,,,0.00,Wunderground v.1.15,2013-08-27 02:43:00,
2013-08-26 22:53:00,76.0,70.8,29.91,SW,236,3.0,3.0,84,0.00,,,0.00,Wunderground v.1.15,2013-08-27 02:53:00,
2013-08-26 23:03:00,75.8,71.0,29.91,SW,236,3.0,3.0,85,0.00,,,0.00,Wunderground v.1.15,2013-08-27 03:03:00,
2013-08-26 23:13:00,75.4,70.9,29.91,SW,236,2.0,2.0,86,0.00,,,0.00,Wunderground v.1.15,2013-08-27 03:13:00,
2013-08-26 23:23:00,75.4,70.9,29.91,SW,236,3.0,3.0,86,0.00,,,0.00,Wunderground v.1.15,2013-08-27 03:23:00,
2013-08-26 23:33:00,75.4,70.9,29.91,SW,236,3.0,3.0,86,0.00,,,0.00,Wunderground v.1.15,2013-08-27 03:33:00,
2013-08-26 23:43:00,75.1,71.0,29.91,SW,236,3.0,4.0,87,0.00,,,0.00,Wunderground v.1.15,2013-08-27 03:43:00,
2013-08-26 23:53:00,75.1,71.0,29.91,SW,236,3.0,5.0,87,0.00,,,0.00,Wunderground v.1.15,2013-08-27 03:53:00,